#timestamp,LO_Frequency,Hit,StdDev 
1509454815.4,286046993.9,N
1509454835.2,286046995.0,N
1509454855.1,286046998.9,N
1509454856.0,286046998.9,N
1509454875.8,286046998.9,N
1509454895.6,286046999.7,N
1509454915.5,286047001.2,N
1509454935.3,286047006.0,N
1509454955.1,286047003.3,N
1509454975.9,286047000.1,N
1509454995.7,286047004.4,N
1509455015.5,286047000.3,N
1509455035.4,286047000.4,N
1509455055.2,286046997.6,N
1509455075.0,286046999.5,N
1509455075.9,286046999.5,N
1509455095.8,286046999.5,N
1509455115.6,286047000.3,N
1509455135.5,286046999.5,N
1509455155.3,286046995.1,N
1509455175.1,286046999.2,N
1509455195.9,286047001.2,N
1509455215.7,286047000.9,N
1509455235.5,286046997.9,N
1509455255.4,286046995.7,N
1509455275.2,286046996.1,N
1509455295.0,286046996.8,N
1509455295.9,286046996.8,N
1509455315.8,286046995.3,N
1509455335.6,286046995.2,N
1509455355.4,286046994.6,N
1509455375.3,286046989.3,Y
1509455395.1,286046989.4,P
1509455415.8,286046993.9,N
1509455435.7,286046993.3,N
1509455455.5,286046995.1,N
1509455475.4,286046996.8,N
1509455495.2,286046994.0,N
1509455515.0,286046992.0,N
1509455515.9,286046992.0,N
1509455535.8,286046996.0,N
1509455555.6,286046996.1,N
1509455575.4,286046996.3,N
1509455595.3,286046996.5,N
1509455615.1,286046993.3,N
1509455616.0,286046993.3,N
1509455635.8,286046993.4,N
1509455655.7,286046993.9,N
1509455675.5,286046994.3,N
1509455695.3,286046990.2,Y
1509455715.2,286046995.2,P
1509455735.0,286046995.1,P
1509455735.9,286046995.1,P
1509455755.8,286046997.4,Y
1509455775.6,286047003.7,P
1509455795.4,286047004.8,N
1509455815.3,286047006.0,N
1509455835.1,286047003.5,N
1509455855.8,286047003.7,N
1509455875.7,286047005.6,N
1509455895.5,286047004.7,N
1509455915.3,286047006.7,N
1509455935.2,286047007.9,N
1509455955.0,286047009.6,N
1509455955.9,286047009.6,N
1509455975.8,286047013.1,Y
1509455995.6,286047015.6,P
1509456015.4,286047011.0,N
1509456035.3,286047016.3,P
1509456055.1,286047016.5,Y
1509456075.8,286047005.8,P
1509456095.7,286047004.7,N
1509456115.5,286047005.7,N
1509456135.3,286047000.1,N
1509456155.2,286046998.4,N
1509456175.0,286046998.5,N
1509456175.9,286046998.5,N
1509456195.7,286047001.0,N
1509456215.6,286046996.8,N
1509456235.4,286046995.3,N
1509456255.2,286047000.7,N
1509456275.1,286046998.8,N
1509456276.0,286046998.8,N
1509456295.8,286046998.6,N
1509456315.6,286046997.2,N
1509456335.5,286046993.0,N
1509456355.3,286046992.0,N
1509456375.1,286046991.9,N
1509456395.9,286046988.8,N
1509456415.7,286046990.6,N
1509456435.6,286046991.0,N
1509456455.4,286046988.3,N
1509456475.2,286046982.3,Y
1509456495.1,286046987.8,P
1509456496.0,286046987.8,N
1509456515.8,286046983.8,P
1509456535.6,286046985.9,N
1509456555.5,286046987.6,N
1509456575.3,286046988.7,N
1509456595.1,286046991.2,N
1509456615.9,286046995.4,N
1509456635.7,286046993.5,N
1509456655.5,286046996.3,N
1509456675.4,286046990.4,N
1509456695.2,286046991.4,N
1509456715.0,286046990.3,N
1509456715.9,286046990.3,N
1509456735.8,286046993.0,N
1509456755.6,286046991.7,N
1509456775.5,286046991.7,N
1509456795.3,286046994.3,N
1509456815.1,286046992.1,N
1509456835.9,286046990.5,N
1509456855.7,286046990.3,N
1509456875.5,286046989.7,Y
1509456895.4,286046995.1,P
1509456915.2,286046997.4,N
1509456935.0,286046998.3,N
1509456935.9,286046998.3,N
1509456955.8,286046997.5,N
1509456975.6,286046997.1,N
1509456995.4,286046994.2,N
1509457015.3,286046993.5,N
1509457035.1,286046995.7,N
1509457055.8,286046992.2,Y
1509457075.7,286047001.0,P
1509457095.5,286047000.3,N
1509457115.3,286047002.3,N
1509457135.2,286047002.4,N
1509457155.0,286047000.4,N
1509457155.9,286047000.4,N
1509457175.8,286047000.7,N
1509457195.6,286047004.1,N
1509457215.4,286047005.2,N
1509457235.3,286047001.4,N
1509457255.1,286046998.5,N
1509457256.0,286046998.5,N
1509457275.8,286046995.7,N
1509457295.7,286046997.2,N
1509457315.5,286046997.6,N
1509457335.3,286047000.9,N
1509457355.2,286047002.3,N
1509457375.9,286047001.8,N
1509457395.7,286047004.4,N
1509457415.6,286047005.5,N
1509457435.4,286047006.8,N
1509457455.2,286047007.5,N
1509457475.1,286047003.0,N
1509457476.0,286047003.0,N
1509457495.8,286046999.7,N
1509457515.6,286046998.5,N
1509457535.5,286046998.9,N
1509457555.3,286047004.1,N
1509457575.1,286047001.9,N
1509457595.9,286046998.4,N
1509457615.7,286046999.1,N
1509457635.5,286046996.9,N
1509457655.4,286046999.9,N
1509457675.2,286047001.5,N
1509457695.1,286047002.7,N
1509457696.0,286047002.7,N
1509457715.8,286047002.2,N
1509457735.6,286047001.3,N
1509457755.5,286047004.6,N
1509457775.3,286047010.0,Y
1509457795.1,286047009.4,P
1509457815.9,286047010.1,N
1509457835.7,286047008.9,N
1509457855.5,286047010.0,N
1509457875.4,286047011.8,Y
1509457895.2,286047002.6,P
1509457915.0,286047002.8,N
1509457916.0,286047002.8,N
1509457935.8,286047001.9,N
1509457955.6,286047002.5,N
1509457975.5,286047004.0,N
1509457995.3,286046999.6,N
1509458015.1,286047000.7,N
1509458035.9,286046997.3,N
1509458055.7,286046997.9,N
1509458075.5,286046995.8,N
1509458095.4,286046997.3,N
1509458115.2,286046995.7,N
1509458135.0,286046995.6,N
1509458135.9,286046995.6,N
1509458155.8,286046997.5,N
1509458175.6,286046995.2,N
1509458195.4,286047001.2,N
1509458215.3,286047000.4,N
1509458235.1,286047002.3,N
1509458255.8,286047000.4,N
1509458275.7,286047001.9,N
1509458295.5,286047007.5,N
1509458315.3,286047005.7,N
1509458335.2,286047006.1,N
1509458355.9,286047005.0,N
1509458375.7,286047002.9,N
1509458395.6,286047001.7,N
